TimeCET,TemperatureF,Dew PointF,Humidity,Sea Level PressureIn,VisibilityMPH,Wind Direction,Wind SpeedMPH,Gust SpeedMPH,PrecipitationIn,Events,Conditions,WindDirDegrees,DateUTC
12:00 AM,24.8,24.8,100,30.04,1.3,Variable,3.5,-,N/A,,Partly Cloudy,0,2013-02-08 23:00:00
12:30 AM,24.8,24.8,100,30.04,-9999.0,WSW,3.5,-,N/A,,Mist,250,2013-02-08 23:30:00
1:00 AM,23,22,94,30.12,3,West,4.6,,,,Mist,260,2013-02-09 00:00:00
1:00 AM,23.0,21.2,93,30.04,3.1,West,4.6,-,N/A,,Mist,260,2013-02-09 00:00:00
1:30 AM,24.8,24.8,100,30.04,4.3,WNW,3.5,-,N/A,,Mostly Cloudy,290,2013-02-09 00:30:00
2:00 AM,24.8,24.8,100,30.04,4.3,West,3.5,-,N/A,,Partly Cloudy,280,2013-02-09 01:00:00
2:30 AM,23.0,23.0,100,30.04,4.3,West,3.5,-,N/A,,Unknown,260,2013-02-09 01:30:00
3:00 AM,26.6,24.8,93,30.04,3.7,WNW,3.5,-,N/A,,Unknown,290,2013-02-09 02:00:00
3:30 AM,26.6,24.8,93,30.04,-9999.0,West,3.5,-,N/A,Snow,Light Snow,270,2013-02-09 02:30:00
4:00 AM,23.0,23.0,100,30.04,3.7,WSW,4.6,-,N/A,,Mostly Cloudy,250,2013-02-09 03:00:00
4:30 AM,24.8,23.0,93,30.04,3.7,West,3.5,-,N/A,,Mostly Cloudy,270,2013-02-09 03:30:00
5:00 AM,24.8,23.0,93,30.04,3.7,West,3.5,-,N/A,,Mostly Cloudy,280,2013-02-09 04:00:00
5:30 AM,24.8,23.0,93,30.04,4.3,WNW,4.6,-,N/A,,Scattered Clouds,290,2013-02-09 04:30:00
6:00 AM,24.8,23.0,93,30.04,4.3,Variable,1.2,-,N/A,,Mostly Cloudy,0,2013-02-09 05:00:00
6:30 AM,23.0,23.0,100,30.04,3.1,WSW,3.5,-,N/A,,Scattered Clouds,240,2013-02-09 05:30:00
7:00 AM,23,23,98,30.13,2,SW,4.6,,,,Mist,230,2013-02-09 06:00:00
7:00 AM,23.0,23.0,100,30.04,3.1,SW,4.6,-,N/A,,Mostly Cloudy,230,2013-02-09 06:00:00
7:30 AM,23.0,23.0,100,30.04,1.7,SSW,3.5,-,N/A,,Partly Cloudy,210,2013-02-09 06:30:00
8:00 AM,21.2,21.2,100,30.04,-9999.0,SW,4.6,-,N/A,,Mostly Cloudy,220,2013-02-09 07:00:00
8:30 AM,23.0,21.2,93,30.06,3.1,SSW,4.6,-,N/A,,Mostly Cloudy,200,2013-02-09 07:30:00
9:00 AM,21.2,21.2,100,30.06,1.9,WSW,3.5,-,N/A,,Scattered Clouds,240,2013-02-09 08:00:00
9:30 AM,23.0,23.0,100,30.06,-9999.0,SW,3.5,-,N/A,,Overcast,230,2013-02-09 08:30:00
10:00 AM,24.8,23.0,93,30.06,3.1,West,1.2,-,N/A,,Mostly Cloudy,260,2013-02-09 09:00:00
10:30 AM,26.6,24.8,93,30.06,3.1,SE,2.3,-,N/A,,Scattered Clouds,140,2013-02-09 09:30:00
11:00 AM,26.6,24.8,93,30.06,3.7,Variable,2.3,-,N/A,,Scattered Clouds,0,2013-02-09 10:00:00
11:30 AM,26.6,24.8,93,30.06,3.7,Variable,1.2,-,N/A,,Mostly Cloudy,0,2013-02-09 10:30:00
12:00 PM,30.2,24.8,80,30.06,4.3,SSW,4.6,-,N/A,,Partly Cloudy,210,2013-02-09 11:00:00
12:30 PM,28.4,24.8,86,30.06,4.3,SW,5.8,-,N/A,,Partly Cloudy,220,2013-02-09 11:30:00
1:00 PM,29,26,84,30.14,6,SW,5.8,,,,Clear,220,2013-02-09 12:00:00
1:00 PM,30.2,26.6,86,30.06,5.6,SW,5.8,-,N/A,,Mostly Cloudy,220,2013-02-09 12:00:00
1:30 PM,30.2,26.6,86,30.06,6.2,SW,3.5,-,N/A,,Mostly Cloudy,230,2013-02-09 12:30:00
2:00 PM,30.2,24.8,80,30.06,6.2,SW,3.5,-,N/A,,Mostly Cloudy,220,2013-02-09 13:00:00
2:30 PM,30.2,24.8,80,30.06,6.2,South,4.6,-,N/A,,Overcast,190,2013-02-09 13:30:00
3:00 PM,32.0,24.8,75,30.06,1.7,Variable,2.3,-,N/A,Rain,Rain,0,2013-02-09 14:00:00
3:30 PM,30.2,24.8,80,30.06,1.4,ENE,3.5,-,N/A,Snow,Light Snow,60,2013-02-09 14:30:00
4:00 PM,28.4,26.6,93,30.06,1.2,SE,3.5,-,N/A,Snow,Light Snow,130,2013-02-09 15:00:00
4:30 PM,28.4,26.6,93,30.04,3.7,SSE,3.5,-,N/A,Snow,Light Snow,160,2013-02-09 15:30:00
5:00 PM,26.6,24.8,93,30.04,6.2,SW,3.5,-,N/A,,Partly Cloudy,230,2013-02-09 16:00:00
5:30 PM,24.8,23.0,93,30.04,6.2,West,2.3,-,N/A,,Unknown,260,2013-02-09 16:30:00
6:00 PM,24.8,24.8,100,30.04,6.2,Calm,Calm,-,N/A,,Partly Cloudy,0,2013-02-09 17:00:00
6:30 PM,24.8,24.8,100,30.06,3.7,Calm,Calm,-,N/A,,Mostly Cloudy,0,2013-02-09 17:30:00
7:00 PM,26,25,93,30.14,8,Calm,Calm,,,,Clear,,2013-02-09 18:00:00
7:00 PM,26.6,24.8,93,30.06,6.2,Calm,Calm,-,N/A,,Overcast,0,2013-02-09 18:00:00
7:30 PM,24.8,24.8,100,30.06,4.3,SE,3.5,-,N/A,,Overcast,130,2013-02-09 18:30:00
8:00 PM,24.8,24.8,100,30.04,6.2,ESE,2.3,-,N/A,,Mostly Cloudy,120,2013-02-09 19:00:00
8:30 PM,24.8,23.0,93,30.04,5.0,South,2.3,-,N/A,,Partly Cloudy,180,2013-02-09 19:30:00
9:00 PM,23.0,21.2,93,30.04,5.0,SE,2.3,-,N/A,,Unknown,140,2013-02-09 20:00:00
9:30 PM,23.0,23.0,100,30.04,5.0,South,1.2,-,N/A,,Unknown,190,2013-02-09 20:30:00
10:00 PM,23.0,21.2,93,30.04,4.3,SSE,2.3,-,N/A,,Unknown,160,2013-02-09 21:00:00
10:30 PM,23.0,21.2,93,30.04,5.6,Variable,3.5,-,N/A,,Unknown,0,2013-02-09 21:30:00
11:00 PM,21.2,21.2,100,30.01,2.2,SE,5.8,-,N/A,,Mist,130,2013-02-09 22:00:00
11:30 PM,23.0,21.2,93,30.01,0.1,SE,6.9,-,N/A,Fog,Light Freezing Fog,140,2013-02-09 22:30:00